When you browse on this site, cookies collect data to enhance your experience and personalize the content and advertising you see.
Visit our Privacy Policy to learn more. By continuing to use the site, you agree to this use of cookies and data.
  • en Belgique
  • Liste des pays
  • À 7 jours
  • Température de l'eau
  • Carte météo
  • Widgets météo
  • user-avatar
    Se connecter

    Météo par heure à Dunkerque

    Ce jour, 15 Octobre, Mardi

    Heure Température Précipitation Vent Pression Humidité
    00:00 +15°C° 0.1 mm 7 m/s 752 mmHg 89%
    01:00 +14°C° 0 mm 7 m/s 752 mmHg 89%
    02:00 +14°C° 0 mm 7 m/s 752 mmHg 89%
    03:00 +12°C° 0 mm 7 m/s 752 mmHg 90%
    04:00 +13°C° 0 mm 6 m/s 752 mmHg 89%
    05:00 +13°C° 0 mm 6 m/s 752 mmHg 89%
    06:00 +13°C° 0 mm 6 m/s 753 mmHg 88%
    07:00 +13°C° 0 mm 6 m/s 753 mmHg 86%
    08:00 +14°C° 0 mm 6 m/s 753 mmHg 84%
    09:00 +14°C° 0 mm 5 m/s 753 mmHg 83%
    10:00 +14°C° 0.1 mm 6 m/s 753 mmHg 81%
    11:00 +15°C° 0.1 mm 6 m/s 753 mmHg 80%
    12:00 +15°C° 0.1 mm 7 m/s 754 mmHg 79%
    13:00 +15°C° 0 mm 7 m/s 754 mmHg 76%
    14:00 +15°C° 0 mm 7 m/s 753 mmHg 74%
    15:00 +15°C° 0 mm 7 m/s 753 mmHg 71%
    16:00 +14°C° 0 mm 6 m/s 754 mmHg 73%
    17:00 +13°C° 0 mm 6 m/s 754 mmHg 75%
    18:00 +13°C° 0 mm 5 m/s 754 mmHg 77%
    19:00 +13°C° 0 mm 6 m/s 755 mmHg 79%
    20:00 +13°C° 0 mm 6 m/s 755 mmHg 81%
    21:00 +12°C° 0 mm 7 m/s 755 mmHg 83%
    22:00 +11°C° 0.1 mm 7 m/s 755 mmHg 84%
    23:00 +11°C° 0.1 mm 7 m/s 755 mmHg 84%

    Demain, 16 Octobre, Mercredi

    Heure Température Précipitation Vent Pression Humidité
    00:00 +11°C° 0.1 mm 7 m/s 756 mmHg 84%
    01:00 +10°C° 0 mm 7 m/s 756 mmHg 85%
    02:00 +10°C° 0 mm 7 m/s 755 mmHg 86%
    03:00 +9°C° 0 mm 7 m/s 755 mmHg 87%
    04:00 +10°C° 0 mm 7 m/s 755 mmHg 87%
    05:00 +10°C° 0 mm 7 m/s 755 mmHg 88%
    06:00 +10°C° 0 mm 7 m/s 754 mmHg 88%
    07:00 +11°C° 0.4 mm 8 m/s 754 mmHg 88%
    08:00 +12°C° 0.4 mm 9 m/s 754 mmHg 89%
    09:00 +12°C° 0.4 mm 9 m/s 753 mmHg 89%
    10:00 +13°C° 0.5 mm 10 m/s 753 mmHg 87%
    11:00 +13°C° 0.5 mm 10 m/s 753 mmHg 85%
    12:00 +13°C° 0.5 mm 11 m/s 753 mmHg 84%
    13:00 +13°C° 0.3 mm 10 m/s 753 mmHg 84%
    14:00 +13°C° 0.3 mm 10 m/s 753 mmHg 84%
    15:00 +12°C° 0.3 mm 10 m/s 754 mmHg 84%
    16:00 +12°C° 0.7 mm 10 m/s 754 mmHg 86%
    17:00 +12°C° 0.7 mm 9 m/s 754 mmHg 88%
    18:00 +12°C° 0.7 mm 9 m/s 754 mmHg 90%
    19:00 +12°C° 0.6 mm 9 m/s 754 mmHg 90%
    20:00 +12°C° 0.6 mm 8 m/s 754 mmHg 90%
    21:00 +12°C° 0.6 mm 8 m/s 754 mmHg 89%
    22:00 +12°C° 0.7 mm 8 m/s 754 mmHg 89%
    23:00 +12°C° 0.7 mm 7 m/s 754 mmHg 88%

    Après-demain, 17 Octobre, Jeudi

    Heure Température Précipitation Vent Pression Humidité
    00:00 +13°C° 0.7 mm 6 m/s 754 mmHg 87%
    01:00 +12°C° 0.1 mm 7 m/s 754 mmHg 87%
    02:00 +12°C° 0.1 mm 8 m/s 754 mmHg 86%
    03:00 +11°C° 0.1 mm 9 m/s 755 mmHg 86%
    04:00 +11°C° 0 mm 8 m/s 755 mmHg 84%
    05:00 +10°C° 0 mm 6 m/s 756 mmHg 83%
    06:00 +9°C° 0 mm 5 m/s 756 mmHg 82%
    07:00 +9°C° 0.1 mm 5 m/s 757 mmHg 82%
    08:00 +10°C° 0.1 mm 5 m/s 758 mmHg 82%
    09:00 +10°C° 0.1 mm 5 m/s 758 mmHg 82%
    10:00 +11°C° 0.2 mm 6 m/s 758 mmHg 76%
    11:00 +12°C° 0.2 mm 7 m/s 758 mmHg 70%
    12:00 +13°C° 0.2 mm 8 m/s 759 mmHg 64%
    13:00 +13°C° 0.2 mm 8 m/s 759 mmHg 63%
    14:00 +13°C° 0.2 mm 8 m/s 758 mmHg 63%
    15:00 +13°C° 0.2 mm 8 m/s 758 mmHg 62%
    16:00 +12°C° 0 mm 7 m/s 758 mmHg 66%
    17:00 +11°C° 0 mm 6 m/s 758 mmHg 70%
    18:00 +10°C° 0 mm 5 m/s 758 mmHg 73%
    19:00 +10°C° 0 mm 5 m/s 758 mmHg 74%
    20:00 +10°C° 0 mm 6 m/s 759 mmHg 75%
    21:00 +10°C° 0 mm 6 m/s 759 mmHg 75%
    22:00 +10°C° 0 mm 6 m/s 758 mmHg 77%
    23:00 +11°C° 0 mm 6 m/s 758 mmHg 79%

    18 Octobre, Vendredi

    Heure Température Précipitation Vent Pression Humidité
    00:00 +11°C° 0 mm 7 m/s 757 mmHg 81%
    01:00 +11°C° 0.2 mm 7 m/s 757 mmHg 83%
    02:00 +11°C° 0.2 mm 7 m/s 757 mmHg 86%
    03:00 +11°C° 0.2 mm 7 m/s 756 mmHg 88%
    04:00 +10°C° 0.1 mm 7 m/s 756 mmHg 87%
    05:00 +9°C° 0.1 mm 8 m/s 756 mmHg 86%
    06:00 +8°C° 0.1 mm 9 m/s 756 mmHg 86%
    07:00 +10°C° 0.2 mm 9 m/s 756 mmHg 83%
    08:00 +11°C° 0.2 mm 10 m/s 756 mmHg 80%
    09:00 +12°C° 0.2 mm 10 m/s 756 mmHg 77%
    10:00 +12°C° 0.2 mm 10 m/s 757 mmHg 73%
    11:00 +13°C° 0.2 mm 10 m/s 757 mmHg 70%
    12:00 +14°C° 0.2 mm 10 m/s 757 mmHg 66%
    13:00 +14°C° 0.1 mm 10 m/s 757 mmHg 66%
    14:00 +15°C° 0.1 mm 9 m/s 757 mmHg 66%
    15:00 +15°C° 0.1 mm 8 m/s 757 mmHg 66%
    16:00 +13°C° 0.1 mm 8 m/s 756 mmHg 69%
    17:00 +12°C° 0.1 mm 7 m/s 756 mmHg 72%
    18:00 +11°C° 0.1 mm 7 m/s 756 mmHg 75%
    19:00 +11°C° 0.1 mm 7 m/s 756 mmHg 77%
    20:00 +11°C° 0.1 mm 7 m/s 756 mmHg 78%
    21:00 +10°C° 0.1 mm 8 m/s 756 mmHg 80%
    22:00 +10°C° 0.2 mm 8 m/s 756 mmHg 80%
    23:00 +10°C° 0.2 mm 9 m/s 755 mmHg 80%

    19 Octobre, Samedi

    Heure Température Précipitation Vent Pression Humidité
    00:00 +10°C° 0.2 mm 9 m/s 755 mmHg 80%
    01:00 +10°C° 0.2 mm 9 m/s 755 mmHg 80%
    02:00 +10°C° 0.2 mm 9 m/s 755 mmHg 80%
    03:00 +10°C° 0.2 mm 9 m/s 755 mmHg 80%
    04:00 +10°C° 0.2 mm 9 m/s 755 mmHg 82%
    05:00 +10°C° 0.2 mm 9 m/s 755 mmHg 84%
    06:00 +10°C° 0.2 mm 8 m/s 755 mmHg 86%
    07:00 +10°C° 0.1 mm 9 m/s 755 mmHg 83%
    08:00 +11°C° 0.1 mm 9 m/s 755 mmHg 80%
    09:00 +12°C° 0.1 mm 9 m/s 755 mmHg 77%
    10:00 +12°C° 0.2 mm 9 m/s 755 mmHg 74%
    11:00 +13°C° 0.2 mm 9 m/s 755 mmHg 72%
    12:00 +13°C° 0.2 mm 9 m/s 754 mmHg 70%
    13:00 +15°C° 0.1 mm 8 m/s 754 mmHg 69%
    14:00 +15°C° 0.1 mm 8 m/s 754 mmHg 68%
    15:00 +15°C° 0.1 mm 7 m/s 754 mmHg 68%
    16:00 +14°C° 0 mm 6 m/s 754 mmHg 72%
    17:00 +13°C° 0 mm 6 m/s 754 mmHg 76%
    18:00 +12°C° 0 mm 5 m/s 754 mmHg 80%
    19:00 +12°C° 0 mm 5 m/s 754 mmHg 81%
    20:00 +11°C° 0 mm 4 m/s 754 mmHg 82%
    21:00 +11°C° 0 mm 4 m/s 754 mmHg 83%
    22:00 +11°C° 0.1 mm 4 m/s 754 mmHg 84%
    23:00 +11°C° 0.1 mm 4 m/s 754 mmHg 84%

    20 Octobre, Dimanche

    Heure Température Précipitation Vent Pression Humidité
    00:00 +10°C° 0.1 mm 5 m/s 753 mmHg 85%
    01:00 +9°C° 0.3 mm 5 m/s 753 mmHg 86%
    02:00 +9°C° 0.3 mm 5 m/s 753 mmHg 87%
    03:00 +8°C° 0.3 mm 5 m/s 753 mmHg 88%
    04:00 +8°C° 0.3 mm 5 m/s 753 mmHg 88%
    05:00 +8°C° 0.3 mm 5 m/s 753 mmHg 88%
    06:00 +8°C° 0.3 mm 5 m/s 754 mmHg 88%
    07:00 +9°C° 0.1 mm 5 m/s 754 mmHg 86%
    08:00 +9°C° 0.1 mm 5 m/s 754 mmHg 84%
    09:00 +10°C° 0.1 mm 5 m/s 754 mmHg 82%
    10:00 +12°C° 0.4 mm 5 m/s 755 mmHg 77%
    11:00 +13°C° 0.4 mm 5 m/s 755 mmHg 72%
    12:00 +14°C° 0.4 mm 5 m/s 755 mmHg 67%
    13:00 +14°C° 0.3 mm 5 m/s 755 mmHg 66%
    14:00 +14°C° 0.3 mm 4 m/s 755 mmHg 66%
    15:00 +14°C° 0.3 mm 4 m/s 755 mmHg 65%
    16:00 +13°C° 0.3 mm 3 m/s 756 mmHg 70%
    17:00 +12°C° 0.3 mm 3 m/s 756 mmHg 75%
    18:00 +10°C° 0.3 mm 2 m/s 757 mmHg 80%
    19:00 +10°C° 0.1 mm 3 m/s 757 mmHg 82%
    20:00 +10°C° 0.1 mm 3 m/s 758 mmHg 83%
    21:00 +10°C° 0.1 mm 3 m/s 758 mmHg 85%
    22:00 +8°C° 0 mm 4 m/s 758 mmHg 86%
    23:00 +8°C° 0 mm 4 m/s 758 mmHg 86%
    Voir plus